Simultaneous Nadir Overpasses (SNOs) Predictions

Prediction of SNOs between AQUA and GOES-15 Satellite Orbit:

Table of predicted SNOs for the next 14.0 days since TLE Epoch: 1/2/2021
Index Date Time (AQUA) AQUA Lat,Lon GOES-15 Lat,Lon Distance(km) Time Diff (sec)
1 01/02/2021 10:25:16 1.09,-132.31 0.21,-128.21 465.53 80
2 01/03/2021 21:51:51 0.66,-124.20 -0.17,-128.24 458.38 80
3 01/04/2021 10:13:05 0.44,-129.35 0.20,-128.19 131.33 80
4 01/06/2021 10:00:53 -0.16,-126.39 0.20,-128.17 202.52 80
5 01/06/2021 22:22:18 -0.92,-131.59 -0.23,-128.20 383.84 80
6 01/08/2021 22:10:06 -0.32,-128.62 -0.23,-128.18 50.59 80
7 01/10/2021 21:57:54 0.29,-125.66 -0.23,-128.14 281.96 80
8 01/11/2021 10:19:08 0.87,-130.80 0.26,-128.09 308.49 80
9 01/13/2021 10:06:57 0.20,-127.85 0.26,-128.05 23.62 80
10 01/15/2021 09:54:45 -0.42,-124.89 0.25,-128.01 355.48 80
11 01/15/2021 22:16:09 -0.70,-130.08 -0.29,-128.04 231.12 80
